Regional Weather Roundup
Issued by NWS Green Bay, WI

Home | Current Version | Previous Version | Graphics & Text | Print | Product List | Glossary Off
Versions: 1 2 3 4 5 6 7 8 9 10 11 12 13 14 15 16 17 18 19 20 21 22 23 24 25 26 27 28 29 30 31 32 33 34 35 36 37 38 39 40 41 42 43 44 45 46 47 48 49 50

114
ASUS43 KGRB 200300
RWRGRB

NORTH-CENTRAL AND NORTHEAST WISCONSIN REGIONAL WEATHER ROUNDUP
NATIONAL WEATHER SERVICE GREEN BAY WI
1000 PM CDT THU APR 19 2018

WIZ005-009-010>012-018-019-200400-
NORTH CENTRAL WISCONSIN

CITY           SKY/WX    TMP DP  RH WIND       PRES   REMARKS
IRONWOOD       FAIR      31  18  58 CALM      30.40S
MANITOWISH WTR NOT AVBL
ARBOR VITAE    NOT AVBL
EAGLE RIVER    FAIR      29  15  56 CALM      30.39S
LAND O LAKES   FAIR      26  14  60 CALM      30.40S
RHINELANDER    FAIR      32  14  47 CALM      30.39S
PHILLIPS       FAIR      31  19  61 CALM      30.40R
ANTIGO         NOT AVBL
TOMAHAWK       NOT AVBL
MERRILL          N/A     37  16  42 CALM      30.40S
$$

WIZ013-073-200400-
NORTHEAST WISCONSIN

CITY           SKY/WX    TMP DP  RH WIND       PRES   REMARKS
IRON MOUNTAIN  FAIR      30  18  60 CALM      30.37S
MARINETTE      FAIR      32  19  58 CALM      30.40R
$$

WIZ017-030-035>037-045-200400-
CENTRAL WISCONSIN

CITY           SKY/WX    TMP DP  RH WIND       PRES   REMARKS
MEDFORD        NOT AVBL
WAUSAU         FAIR      40  22  48 NW6       30.39S
MOSINEE        PTCLDY    37  21  52 NW5       30.41S
MARSHFIELD     FAIR      38  19  46 W7        30.41R
WISC RAPIDS    FAIR      34  17  50 SW3       30.43R
STEVENS POINT  NOT AVBL
WAUPACA        FAIR      43  19  39 W5        30.41R
SHAWANO        FAIR      37  23  58 CALM      30.39R
CLINTONVILLE   FAIR      35  21  56 CALM      30.40R
WAUTOMA        FAIR      36  20  52 W5        30.42S
$$

WIZ038-039-048-051-200400-
FOX VALLEY

CITY           SKY/WX    TMP DP  RH WIND       PRES   REMARKS
NWS GREEN BAY  FAIR      34  25  69 CALM      30.39R
APPLETON       CLEAR     39  19  45 W9        30.38R
OSHKOSH        FAIR      42  20  41 W6        30.40R
FOND DU LAC    FAIR      38  23  55 SW3       30.41R
$$

WIZ022-050-052-200400-
EAST CENTRAL WISCONSIN

CITY           SKY/WX    TMP DP  RH WIND       PRES   REMARKS
EPHRAIM        NOT AVBL
WASHINGTON ISL NOT AVBL
STURGEON BAY   FAIR      36  17  46 CALM      30.40R
MANITOWOC      FAIR      35  24  64 CALM      30.40R
SHEBOYGAN      FAIR      38  27  64 W6        30.39S
$$

LMZ563-521-522-541>543-200400-
LAKESHORE

STATION/POSITION TIME  TEMP    WIND        PRES    VSBY  WAVE
                       AIR SEA DIR/SP/G                  HT/PER
                 (UTC) (F)     (DEG/KT/KT) (MB)    (MI)  (FT/S)
SHEBOYGAN LKSHOR 0200   45     260/  9/ 10 1029.3R
KEWAUNEE LKSHORE 0230   36     310/  3/  3 1028.1S
NORTHPORT PIER   0240   38                 1028.4S
SISTER BAY LKSHO 0212   35     270/  3/  5   N/A
MENOMINEE LKSHOR 0224   40     140/  2/  2 1028.6
$$




USA.gov is the U.S. government's official web portal to all federal, state and local government web resources and services.